When you browse on this site, cookies collect data to enhance your experience and personalize the content and advertising you see.
Visit our Privacy Policy to learn more. By continuing to use the site, you agree to this use of cookies and data.
  • In Österreich
  • Länderverzeichnis
  • Für 7 Tage
  • Wassertemperatur
  • Wetterkarte
  • News
  • Widgets
  • user-avatar
    Anmelden

    Stündliche Wetter Veresnica

    Heute, 24 September, Dienstag

    Zeit Temperatur Niederschläge Wind Luftdruck Luftfeuchtigkeit
    00:00 +3°C° 0 mm 2 m/S 755 mmHg 71%
    01:00 +3°C° 0 mm 2 m/S 755 mmHg 72%
    02:00 +3°C° 0 mm 1 m/S 755 mmHg 76%
    03:00 +3°C° 0 mm 1 m/S 755 mmHg 77%
    04:00 +3°C° 0 mm 1 m/S 754 mmHg 79%
    05:00 +3°C° 0 mm 1 m/S 754 mmHg 80%
    06:00 +3°C° 0 mm 2 m/S 754 mmHg 75%
    07:00 +4°C° 0 mm 2 m/S 754 mmHg 71%
    08:00 +5°C° 0 mm 2 m/S 754 mmHg 66%
    09:00 +7°C° 0 mm 2 m/S 754 mmHg 59%
    10:00 +9°C° 0 mm 2 m/S 754 mmHg 51%
    11:00 +12°C° 0 mm 2 m/S 754 mmHg 44%
    12:00 +13°C° 0 mm 2 m/S 753 mmHg 41%
    13:00 +13°C° 0 mm 2 m/S 753 mmHg 38%
    14:00 +14°C° 0 mm 2 m/S 753 mmHg 35%
    15:00 +13°C° 0 mm 2 m/S 752 mmHg 40%
    16:00 +13°C° 0 mm 2 m/S 752 mmHg 44%
    17:00 +12°C° 0 mm 2 m/S 752 mmHg 48%
    18:00 +9°C° 0 mm 2 m/S 752 mmHg 52%
    19:00 +7°C° 0 mm 2 m/S 752 mmHg 56%
    20:00 +5°C° 0 mm 3 m/S 752 mmHg 61%
    21:00 +4°C° 0 mm 3 m/S 752 mmHg 62%
    22:00 +4°C° 0 mm 3 m/S 752 mmHg 63%
    23:00 +3°C° 0 mm 3 m/S 752 mmHg 65%

    Morgen, 25 September, Mittwoch

    Zeit Temperatur Niederschläge Wind Luftdruck Luftfeuchtigkeit
    00:00 +3°C° 0 mm 3 m/S 752 mmHg 66%
    01:00 +3°C° 0 mm 2 m/S 752 mmHg 67%
    02:00 +3°C° 0 mm 2 m/S 752 mmHg 68%
    03:00 +3°C° 0 mm 2 m/S 752 mmHg 69%
    04:00 +3°C° 0 mm 2 m/S 751 mmHg 70%
    05:00 +1°C° 0 mm 3 m/S 751 mmHg 71%
    06:00 +2°C° 0 mm 3 m/S 751 mmHg 67%
    07:00 +4°C° 0 mm 3 m/S 751 mmHg 63%
    08:00 +5°C° 0 mm 3 m/S 751 mmHg 59%
    09:00 +8°C° 0 mm 3 m/S 751 mmHg 55%
    10:00 +10°C° 0 mm 3 m/S 751 mmHg 51%
    11:00 +12°C° 0 mm 3 m/S 751 mmHg 47%
    12:00 +13°C° 0 mm 3 m/S 750 mmHg 47%
    13:00 +14°C° 0 mm 3 m/S 750 mmHg 46%
    14:00 +16°C° 0 mm 3 m/S 749 mmHg 46%
    15:00 +14°C° 0 mm 3 m/S 749 mmHg 51%
    16:00 +14°C° 0 mm 3 m/S 749 mmHg 55%
    17:00 +14°C° 0 mm 2 m/S 748 mmHg 60%
    18:00 +13°C° 0 mm 2 m/S 748 mmHg 63%
    19:00 +11°C° 0 mm 3 m/S 748 mmHg 65%
    20:00 +10°C° 0 mm 3 m/S 748 mmHg 68%
    21:00 +10°C° 0 mm 3 m/S 748 mmHg 69%
    22:00 +10°C° 0 mm 3 m/S 748 mmHg 69%
    23:00 +9°C° 0 mm 3 m/S 748 mmHg 69%

    übermorgen, 26 September, Donnerstag

    Zeit Temperatur Niederschläge Wind Luftdruck Luftfeuchtigkeit
    00:00 +9°C° 0.1 mm 3 m/S 748 mmHg 72%
    01:00 +9°C° 0.1 mm 3 m/S 747 mmHg 75%
    02:00 +9°C° 0.1 mm 2 m/S 747 mmHg 78%
    03:00 +8°C° 0 mm 2 m/S 747 mmHg 80%
    04:00 +8°C° 0 mm 2 m/S 747 mmHg 83%
    05:00 +8°C° 0 mm 2 m/S 747 mmHg 85%
    06:00 +8°C° 0 mm 2 m/S 747 mmHg 84%
    07:00 +9°C° 0 mm 2 m/S 747 mmHg 84%
    08:00 +10°C° 0 mm 2 m/S 748 mmHg 84%
    09:00 +11°C° 0 mm 3 m/S 748 mmHg 80%
    10:00 +13°C° 0 mm 3 m/S 748 mmHg 76%
    11:00 +16°C° 0 mm 3 m/S 748 mmHg 73%
    12:00 +17°C° 0.1 mm 3 m/S 748 mmHg 71%
    13:00 +17°C° 0.1 mm 3 m/S 748 mmHg 70%
    14:00 +18°C° 0.1 mm 3 m/S 748 mmHg 68%
    15:00 +17°C° 0.1 mm 3 m/S 748 mmHg 72%
    16:00 +16°C° 0.1 mm 2 m/S 748 mmHg 75%
    17:00 +16°C° 0.1 mm 2 m/S 748 mmHg 79%
    18:00 +14°C° 0 mm 2 m/S 748 mmHg 84%
    19:00 +13°C° 0 mm 2 m/S 749 mmHg 90%
    20:00 +10°C° 0 mm 2 m/S 749 mmHg 96%
    21:00 +9°C° 0 mm 2 m/S 749 mmHg 96%
    22:00 +9°C° 0 mm 2 m/S 750 mmHg 96%
    23:00 +8°C° 0 mm 2 m/S 750 mmHg 97%

    27 September, Freitag

    Zeit Temperatur Niederschläge Wind Luftdruck Luftfeuchtigkeit
    00:00 +8°C° 0 mm 2 m/S 750 mmHg 97%
    01:00 +8°C° 0 mm 2 m/S 750 mmHg 97%
    02:00 +8°C° 0 mm 2 m/S 751 mmHg 97%
    03:00 +8°C° 0 mm 2 m/S 751 mmHg 97%
    04:00 +7°C° 0 mm 2 m/S 751 mmHg 97%
    05:00 +7°C° 0 mm 2 m/S 751 mmHg 96%
    06:00 +8°C° 0 mm 2 m/S 751 mmHg 94%
    07:00 +8°C° 0 mm 2 m/S 751 mmHg 92%
    08:00 +9°C° 0 mm 2 m/S 751 mmHg 90%
    09:00 +10°C° 0 mm 2 m/S 752 mmHg 84%
    10:00 +13°C° 0 mm 2 m/S 752 mmHg 78%
    11:00 +14°C° 0 mm 2 m/S 752 mmHg 71%
    12:00 +15°C° 0 mm 1 m/S 752 mmHg 67%
    13:00 +16°C° 0 mm 1 m/S 752 mmHg 64%
    14:00 +18°C° 0 mm 1 m/S 752 mmHg 60%
    15:00 +16°C° 0 mm 1 m/S 752 mmHg 63%
    16:00 +15°C° 0 mm 1 m/S 752 mmHg 66%
    17:00 +15°C° 0 mm 1 m/S 752 mmHg 69%
    18:00 +13°C° 0 mm 1 m/S 752 mmHg 74%
    19:00 +12°C° 0 mm 1 m/S 752 mmHg 80%
    20:00 +9°C° 0 mm 2 m/S 752 mmHg 86%
    21:00 +9°C° 0 mm 2 m/S 752 mmHg 88%
    22:00 +9°C° 0 mm 2 m/S 752 mmHg 90%
    23:00 +8°C° 0 mm 2 m/S 753 mmHg 92%

    28 September, Samstag

    Zeit Temperatur Niederschläge Wind Luftdruck Luftfeuchtigkeit
    00:00 +8°C° 0 mm 2 m/S 752 mmHg 92%
    01:00 +8°C° 0 mm 2 m/S 752 mmHg 93%
    02:00 +8°C° 0 mm 2 m/S 752 mmHg 94%
    03:00 +8°C° 0 mm 2 m/S 752 mmHg 94%
    04:00 +8°C° 0 mm 2 m/S 752 mmHg 95%
    05:00 +8°C° 0 mm 2 m/S 752 mmHg 95%
    06:00 +9°C° 0 mm 3 m/S 751 mmHg 92%
    07:00 +9°C° 0 mm 3 m/S 751 mmHg 88%
    08:00 +10°C° 0 mm 3 m/S 751 mmHg 85%
    09:00 +11°C° 0.2 mm 3 m/S 750 mmHg 86%
    10:00 +11°C° 0.2 mm 4 m/S 750 mmHg 87%
    11:00 +11°C° 0.2 mm 4 m/S 750 mmHg 88%
    12:00 +13°C° 0.3 mm 4 m/S 750 mmHg 83%
    13:00 +15°C° 0.3 mm 4 m/S 749 mmHg 78%
    14:00 +18°C° 0.3 mm 4 m/S 749 mmHg 73%
    15:00 +18°C° 0.6 mm 4 m/S 749 mmHg 76%
    16:00 +17°C° 0.6 mm 3 m/S 749 mmHg 78%
    17:00 +17°C° 0.6 mm 3 m/S 748 mmHg 80%
    18:00 +16°C° 0 mm 3 m/S 748 mmHg 83%
    19:00 +15°C° 0 mm 2 m/S 748 mmHg 86%
    20:00 +14°C° 0 mm 2 m/S 748 mmHg 90%
    21:00 +13°C° 0 mm 2 m/S 748 mmHg 90%
    22:00 +13°C° 0 mm 2 m/S 748 mmHg 91%
    23:00 +12°C° 0 mm 2 m/S 748 mmHg 92%

    29 September, Sonntag

    Zeit Temperatur Niederschläge Wind Luftdruck Luftfeuchtigkeit
    00:00 +12°C° 0.1 mm 2 m/S 748 mmHg 93%
    01:00 +12°C° 0.1 mm 2 m/S 748 mmHg 94%
    02:00 +12°C° 0.1 mm 2 m/S 748 mmHg 95%
    03:00 +12°C° 0.2 mm 2 m/S 747 mmHg 95%
    04:00 +10°C° 0.2 mm 2 m/S 747 mmHg 95%
    05:00 +10°C° 0.2 mm 2 m/S 747 mmHg 96%
    06:00 +11°C° 0 mm 3 m/S 747 mmHg 93%
    07:00 +11°C° 0 mm 3 m/S 747 mmHg 90%
    08:00 +12°C° 0 mm 3 m/S 747 mmHg 88%
    09:00 +13°C° 0 mm 4 m/S 747 mmHg 82%
    10:00 +15°C° 0 mm 4 m/S 747 mmHg 76%
    11:00 +16°C° 0 mm 5 m/S 747 mmHg 70%
    12:00 +17°C° 0.1 mm 5 m/S 747 mmHg 65%
    13:00 +17°C° 0.1 mm 5 m/S 747 mmHg 61%
    14:00 +19°C° 0.1 mm 6 m/S 747 mmHg 57%
    15:00 +17°C° 0.1 mm 5 m/S 747 mmHg 61%
    16:00 +17°C° 0.1 mm 4 m/S 747 mmHg 65%
    17:00 +17°C° 0.1 mm 3 m/S 747 mmHg 69%
    18:00 +15°C° 0 mm 2 m/S 747 mmHg 73%
    19:00 +14°C° 0 mm 2 m/S 747 mmHg 78%
    20:00 +13°C° 0 mm 2 m/S 747 mmHg 82%
    21:00 +13°C° 0 mm 2 m/S 747 mmHg 82%
    22:00 +13°C° 0 mm 2 m/S 747 mmHg 82%
    23:00 +13°C° 0 mm 2 m/S 747 mmHg 82%
    Mehr zeigen